{"data":{"norad_id":68119,"epoch":"2026-09-20T04:44:03.174144Z","epoch_age_seconds":81881,"freshness":"FRESH","line1":"1 68119U 26044U   26263.19725896  .00025856  00000+0  79994-3 0  9993","line2":"2 68119  97.2859 222.1878 0002281  91.4052 268.7452 15.33464486 31395","mean_motion":15.33464486,"eccentricity":0.0002281,"inclination_deg":97.2859,"raan_deg":222.1878,"arg_perigee_deg":91.4052,"mean_anomaly_deg":268.7452,"bstar":0.00079994,"rev_number":3139,"period_min":93.905011374355,"perigee_km":463.92416824216,"apogee_km":467.0462286891,"semimajor_km":6843.6221984656,"source":"CELESTRAK","updated_at":"2026-09-20T09:00:43.789149Z"}}